• en France
  • Liste des pays
  • À 7 jours
  • Température de l'eau
  • Carte satellitaire
  • Carte météo
  • Widgets météo
  • user-avatar
    Se connecter

    Météo par heure à Milejow

    Ce jour, 19 Août, Dimanche

    Heure Température Précipitation Vent Pression Humidité
    00:00 +22°C° 0 mm 1 m/s 753 mmHg 71%
    01:00 +22°C° 0 mm 1 m/s 754 mmHg 73%
    02:00 +22°C° 0 mm 1 m/s 754 mmHg 74%
    03:00 +21°C° 0 mm 1 m/s 754 mmHg 74%
    04:00 +21°C° 0 mm 1 m/s 753 mmHg 75%
    05:00 +22°C° 0 mm 1 m/s 754 mmHg 72%
    06:00 +23°C° 0 mm 1 m/s 754 mmHg 69%
    07:00 +24°C° 0 mm 1 m/s 754 mmHg 66%
    08:00 +25°C° 0,1 mm 1 m/s 754 mmHg 62%
    09:00 +27°C° 0,1 mm 2 m/s 754 mmHg 58%
    10:00 +28°C° 0,1 mm 2 m/s 754 mmHg 53%
    11:00 +29°C° 0,1 mm 2 m/s 754 mmHg 49%
    12:00 +29°C° 0,1 mm 2 m/s 753 mmHg 45%
    13:00 +30°C° 0,1 mm 3 m/s 753 mmHg 41%
    14:00 +30°C° 0 mm 2 m/s 753 mmHg 39%
    15:00 +30°C° 0 mm 2 m/s 753 mmHg 37%
    16:00 +30°C° 0 mm 2 m/s 752 mmHg 36%
    17:00 +29°C° 0 mm 2 m/s 752 mmHg 39%
    18:00 +27°C° 0 mm 2 m/s 752 mmHg 42%
    19:00 +25°C° 0 mm 1 m/s 752 mmHg 46%
    20:00 +25°C° 0 mm 1 m/s 752 mmHg 46%
    21:00 +24°C° 0 mm 1 m/s 752 mmHg 47%
    22:00 +23°C° 0 mm 1 m/s 752 mmHg 47%
    23:00 +23°C° 0 mm 1 m/s 751 mmHg 48%

    Demain, 20 Août, Lundi

    Heure Température Précipitation Vent Pression Humidité
    00:00 +23°C° 0 mm 2 m/s 751 mmHg 49%
    01:00 +21°C° 0 mm 2 m/s 751 mmHg 50%
    02:00 +21°C° 0 mm 2 m/s 751 mmHg 53%
    03:00 +21°C° 0 mm 2 m/s 751 mmHg 55%
    04:00 +21°C° 0 mm 2 m/s 750 mmHg 58%
    05:00 +22°C° 0 mm 3 m/s 750 mmHg 59%
    06:00 +24°C° 0 mm 3 m/s 750 mmHg 60%
    07:00 +25°C° 0 mm 3 m/s 750 mmHg 61%
    08:00 +27°C° 0 mm 3 m/s 750 mmHg 57%
    09:00 +28°C° 0 mm 4 m/s 750 mmHg 52%
    10:00 +30°C° 0 mm 4 m/s 750 mmHg 47%
    11:00 +30°C° 0 mm 4 m/s 750 mmHg 46%
    12:00 +30°C° 0 mm 4 m/s 750 mmHg 44%
    13:00 +32°C° 0 mm 5 m/s 749 mmHg 43%
    14:00 +30°C° 0 mm 5 m/s 749 mmHg 43%
    15:00 +30°C° 0 mm 5 m/s 749 mmHg 43%
    16:00 +30°C° 0 mm 5 m/s 749 mmHg 44%
    17:00 +28°C° 0 mm 5 m/s 749 mmHg 49%
    18:00 +27°C° 0 mm 4 m/s 749 mmHg 54%
    19:00 +25°C° 0 mm 3 m/s 749 mmHg 59%
    20:00 +24°C° 0 mm 3 m/s 750 mmHg 64%
    21:00 +22°C° 0 mm 3 m/s 750 mmHg 68%
    22:00 +21°C° 0 mm 4 m/s 751 mmHg 73%
    23:00 +20°C° 0 mm 3 m/s 751 mmHg 74%

    Après-demain, 21 Août, Mardi

    Heure Température Précipitation Vent Pression Humidité
    00:00 +19°C° 0 mm 3 m/s 751 mmHg 75%
    01:00 +18°C° 0 mm 3 m/s 752 mmHg 75%
    02:00 +17°C° 0 mm 3 m/s 752 mmHg 75%
    03:00 +17°C° 0 mm 3 m/s 752 mmHg 74%
    04:00 +16°C° 0 mm 3 m/s 752 mmHg 74%
    05:00 +16°C° 0 mm 3 m/s 753 mmHg 71%
    06:00 +17°C° 0 mm 4 m/s 753 mmHg 69%
    07:00 +18°C° 0 mm 4 m/s 754 mmHg 66%
    08:00 +19°C° 0 mm 4 m/s 754 mmHg 60%
    09:00 +20°C° 0 mm 4 m/s 754 mmHg 54%
    10:00 +22°C° 0 mm 4 m/s 754 mmHg 48%
    11:00 +23°C° 0 mm 4 m/s 754 mmHg 44%
    12:00 +25°C° 0 mm 4 m/s 754 mmHg 41%
    13:00 +26°C° 0 mm 4 m/s 754 mmHg 37%
    14:00 +26°C° 0 mm 4 m/s 754 mmHg 37%
    15:00 +26°C° 0 mm 3 m/s 754 mmHg 37%
    16:00 +26°C° 0 mm 3 m/s 754 mmHg 37%
    17:00 +25°C° 0 mm 3 m/s 754 mmHg 41%
    18:00 +23°C° 0 mm 2 m/s 754 mmHg 45%
    19:00 +22°C° 0 mm 1 m/s 754 mmHg 49%
    20:00 +21°C° 0 mm 1 m/s 754 mmHg 52%
    21:00 +20°C° 0 mm 1 m/s 755 mmHg 54%
    22:00 +19°C° 0 mm 1 m/s 755 mmHg 57%
    23:00 +19°C° 0 mm 1 m/s 755 mmHg 59%

    22 Août, Mercredi

    Heure Température Précipitation Vent Pression Humidité
    00:00 +17°C° 0 mm 2 m/s 755 mmHg 62%
    01:00 +17°C° 0 mm 2 m/s 755 mmHg 64%
    02:00 +16°C° 0 mm 2 m/s 755 mmHg 66%
    03:00 +16°C° 0 mm 2 m/s 755 mmHg 68%
    04:00 +16°C° 0 mm 2 m/s 755 mmHg 70%
    05:00 +17°C° 0 mm 2 m/s 755 mmHg 68%
    06:00 +18°C° 0 mm 2 m/s 755 mmHg 65%
    07:00 +19°C° 0 mm 3 m/s 755 mmHg 63%
    08:00 +21°C° 0 mm 3 m/s 755 mmHg 57%
    09:00 +24°C° 0 mm 3 m/s 755 mmHg 51%
    10:00 +25°C° 0 mm 3 m/s 755 mmHg 44%
    11:00 +26°C° 0 mm 3 m/s 754 mmHg 42%
    12:00 +27°C° 0 mm 3 m/s 754 mmHg 40%
    13:00 +28°C° 0 mm 3 m/s 754 mmHg 38%
    14:00 +28°C° 0 mm 3 m/s 753 mmHg 38%
    15:00 +28°C° 0 mm 3 m/s 753 mmHg 38%
    16:00 +28°C° 0 mm 3 m/s 753 mmHg 37%
    17:00 +27°C° 0 mm 3 m/s 752 mmHg 42%
    18:00 +25°C° 0 mm 3 m/s 752 mmHg 47%
    19:00 +24°C° 0 mm 3 m/s 752 mmHg 51%
    20:00 +22°C° 0 mm 3 m/s 752 mmHg 53%
    21:00 +21°C° 0 mm 3 m/s 752 mmHg 54%
    22:00 +20°C° 0 mm 3 m/s 753 mmHg 56%
    23:00 +20°C° 0 mm 3 m/s 752 mmHg 59%

    23 Août, Jeudi

    Heure Température Précipitation Vent Pression Humidité
    00:00 +19°C° 0 mm 3 m/s 752 mmHg 62%
    01:00 +19°C° 0 mm 3 m/s 752 mmHg 66%
    02:00 +18°C° 0 mm 3 m/s 752 mmHg 69%
    03:00 +18°C° 0 mm 3 m/s 752 mmHg 73%
    04:00 +18°C° 0 mm 3 m/s 751 mmHg 76%
    05:00 +19°C° 0 mm 3 m/s 751 mmHg 74%
    06:00 +20°C° 0 mm 3 m/s 751 mmHg 71%
    07:00 +21°C° 0 mm 4 m/s 751 mmHg 69%
    08:00 +23°C° 0 mm 4 m/s 751 mmHg 61%
    09:00 +26°C° 0 mm 3 m/s 751 mmHg 54%
    10:00 +28°C° 0 mm 3 m/s 751 mmHg 46%
    11:00 +29°C° 0 mm 3 m/s 750 mmHg 43%
    12:00 +30°C° 0 mm 3 m/s 750 mmHg 39%
    13:00 +31°C° 0 mm 2 m/s 749 mmHg 36%
    14:00 +31°C° 0 mm 2 m/s 749 mmHg 36%
    15:00 +31°C° 0 mm 2 m/s 749 mmHg 37%
    16:00 +31°C° 0 mm 1 m/s 748 mmHg 37%
    17:00 +29°C° 0 mm 1 m/s 748 mmHg 40%
    18:00 +28°C° 0 mm 2 m/s 748 mmHg 42%
    19:00 +27°C° 0 mm 2 m/s 748 mmHg 45%
    20:00 +26°C° 0 mm 2 m/s 747 mmHg 46%
    21:00 +25°C° 0 mm 3 m/s 747 mmHg 48%
    22:00 +24°C° 0 mm 3 m/s 747 mmHg 49%
    23:00 +24°C° 0 mm 3 m/s 747 mmHg 50%

    24 Août, Vendredi

    Heure Température Précipitation Vent Pression Humidité
    00:00 +22°C° 0 mm 3 m/s 747 mmHg 52%
    01:00 +22°C° 0 mm 3 m/s 746 mmHg 53%
    02:00 +21°C° 0 mm 3 m/s 746 mmHg 57%
    03:00 +21°C° 0 mm 3 m/s 745 mmHg 60%
    04:00 +21°C° 0 mm 3 m/s 745 mmHg 63%
    05:00 +22°C° 0 mm 3 m/s 745 mmHg 63%
    06:00 +23°C° 0 mm 4 m/s 744 mmHg 62%
    07:00 +25°C° 0 mm 4 m/s 744 mmHg 62%
    08:00 +27°C° 0 mm 4 m/s 744 mmHg 57%
    09:00 +28°C° 0 mm 4 m/s 744 mmHg 52%
    10:00 +30°C° 0 mm 4 m/s 743 mmHg 47%
    11:00 +32°C° 0 mm 5 m/s 743 mmHg 44%
    12:00 +33°C° 0 mm 5 m/s 743 mmHg 42%
    13:00 +34°C° 0 mm 5 m/s 742 mmHg 39%
    14:00 +33°C° 0 mm 5 m/s 742 mmHg 41%
    15:00 +32°C° 0 mm 5 m/s 742 mmHg 44%
    16:00 +30°C° 0 mm 5 m/s 742 mmHg 46%
    17:00 +28°C° 0,1 mm 5 m/s 742 mmHg 52%
    18:00 +27°C° 0,1 mm 5 m/s 742 mmHg 58%
    19:00 +25°C° 0,1 mm 5 m/s 743 mmHg 64%
    20:00 +23°C° 0,1 mm 5 m/s 743 mmHg 71%
    21:00 +21°C° 0,1 mm 5 m/s 744 mmHg 77%
    22:00 +20°C° 0,1 mm 4 m/s 744 mmHg 83%
    23:00 +17°C° 0,1 mm 5 m/s 745 mmHg 83%
    Voir plus